Marshfield, WI

2:33 AM CDT on April 20, 2018 (GMT -0500)
Marshfield Municipal

Weather History for KMFI - September, 2012

Change the Weather History Date:

Wednesday, September 19, 2012

  Actual Average Record
Temperature  
Mean Temperature 52 °F -  
Max Temperature 68 °F 70 °F 90 °F (1948)
Min Temperature 36 °F 47 °F 27 °F (1929)
Degree Days  
Heating Degree Days 13    
Growing Degree Days 2 (Base 50)    
Moisture  
Dew Point 39 °F    
Average Humidity 64    
Maximum Humidity 90    
Minimum Humidity 43    
Precipitation  
Precipitation 0.00 in - - ()
Sea Level Pressure  
Sea Level Pressure 29.80 in    
Wind  
Wind Speed 9 mph (SSW)    
Max Wind Speed 28 mph    
Max Gust Speed 38 mph    
Visibility 10 miles    
Events Rain    
Averages and records for this station are not official NWS values.
T = Trace of Precipitation, MM = Missing Value Source: NWS Daily Summary

Daily Weather History Graph

Daily Weather History Graph

Search for Another Location

Airport or City:

Astronomy

Sep. 19, 2012 Rise Set
Actual Time 6:44 AM CDT 7:02 PM CDT
Civil Twilight 6:15 AM CDT 7:32 PM CDT
Nautical Twilight 5:41 AM CDT 8:06 PM CDT
Astronomical Twilight 5:05 AM CDT 8:41 PM CDT
Moon 11:07 AM CDT (9/19) 8:59 PM CDT (9/19)
Length of Visible Light 13h 16m
Length of Day
12h 18m
Waxing Crescent, 17% of the Moon is Illuminated
Sep 19
Waxing Crescent
Sep 22
First Quarter
Sep 29
Full
Oct 8
Last Quarter
Oct 15
New

Hourly Weather History & Observations

Time (CDT) Temp. Windchill Dew Point Humidity Pressure Visibility Wind Dir Wind Speed Gust Speed Precip Events Conditions
12:54 AM 36.0 °F 33.3 °F 30.0 °F 79% 29.99 in 10.0 mi SSE 3.5 mph - N/A   Clear
1:54 AM 37.0 °F - 30.9 °F 79% 29.99 in 10.0 mi Calm Calm - N/A   Clear
2:54 AM 37.0 °F 32.4 °F 30.9 °F 79% 29.97 in 10.0 mi South 5.8 mph - N/A   Overcast
3:54 AM 37.9 °F 33.5 °F 33.1 °F 83% 29.96 in 10.0 mi South 5.8 mph - N/A   Overcast
4:54 AM 39.9 °F 33.4 °F 33.1 °F 77% 29.94 in 10.0 mi South 10.4 mph - N/A   Overcast
5:54 AM 41.0 °F 35.2 °F 33.1 °F 73% 29.92 in 10.0 mi South 9.2 mph - N/A   Overcast
6:54 AM 43.0 °F 36.0 °F 33.1 °F 68% 29.89 in 10.0 mi South 13.8 mph - N/A   Overcast
7:54 AM 45.0 °F 38.2 °F 34.0 °F 65% 29.86 in 10.0 mi South 15.0 mph 20.7 mph 0.00 in Rain Light Rain
8:54 AM 48.9 °F - 34.0 °F 56% 29.80 in 10.0 mi South 20.7 mph 28.8 mph 0.00 in   Mostly Cloudy
9:54 AM 54.0 °F - 36.0 °F 51% 29.78 in 10.0 mi South 17.3 mph 28.8 mph N/A   Partly Cloudy
10:54 AM 57.0 °F - 37.9 °F 49% 29.81 in 10.0 mi SSW 15.0 mph 24.2 mph N/A   Partly Cloudy
11:54 AM 61.0 °F - 39.9 °F 46% 29.80 in 10.0 mi SW 18.4 mph 24.2 mph N/A   Mostly Cloudy
12:54 PM 60.1 °F - 41.0 °F 49% 29.69 in 10.0 mi SE 13.8 mph - 0.00 in   Mostly Cloudy
1:54 PM 63.0 °F - 44.1 °F 50% 29.70 in 10.0 mi SSW 17.3 mph 23.0 mph 0.00 in   Mostly Cloudy
2:54 PM 68.0 °F - 45.0 °F 43% 29.65 in 10.0 mi SSW 15.0 mph 26.5 mph N/A   Mostly Cloudy
3:54 PM 68.0 °F - 46.0 °F 45% 29.67 in 10.0 mi WSW 11.5 mph 18.4 mph 0.00 in   Overcast
4:54 PM 68.0 °F - 46.9 °F 47% 29.66 in 10.0 mi WSW 5.8 mph - N/A   Overcast
5:54 PM 68.0 °F - 46.9 °F 47% 29.64 in 10.0 mi WSW 6.9 mph - N/A   Partly Cloudy
6:54 PM 63.0 °F - 43.0 °F 48% 29.70 in 10.0 mi NNW 27.6 mph 38.0 mph N/A   Partly Cloudy
7:02 PM 57.2 °F - 42.8 °F 59% 29.72 in 10.0 mi NNW 20.7 mph 38.0 mph N/A   Mostly Cloudy
8:54 PM 48.9 °F - 44.1 °F 83% 29.78 in 10.0 mi West 3.5 mph - N/A   Clear
9:54 PM 46.9 °F - 43.0 °F 86% 29.79 in 10.0 mi West 6.9 mph - N/A   Clear
10:54 PM 46.9 °F - 44.1 °F 90% 29.80 in 10.0 mi West 5.8 mph - N/A   Clear
11:54 PM 46.9 °F - 43.0 °F 86% 29.79 in 10.0 mi West 6.9 mph - N/A   Clear